Time,TemperatureF,DewpointF,PressureIn,WindDirection,WindDirectionDegrees,WindSpeedMPH,WindSpeedGustMPH,Humidity,HourlyPrecipIn,Conditions,Clouds,dailyrainin,SoftwareType,DateUTC
2013-07-06 00:02:00,74.0,61.0,29.82,SSE,158,0.0,7.0,64,0.00,,,0.00,,2013-07-06 04:02:00,
2013-07-06 00:12:00,74.0,61.0,29.82,SSE,150,1.0,6.0,64,0.00,,,0.00,,2013-07-06 04:12:00,
2013-07-06 00:22:00,73.0,61.0,29.82,SSE,153,2.0,10.0,65,0.00,,,0.00,,2013-07-06 04:22:00,
2013-07-06 00:33:00,73.0,61.0,29.82,SSE,153,2.0,10.0,65,0.00,,,0.00,,2013-07-06 04:33:00,
2013-07-06 00:43:00,73.0,60.0,29.81,SSW,197,2.0,7.0,64,0.00,,,0.00,,2013-07-06 04:43:00,
2013-07-06 00:53:00,74.0,61.0,29.81,SSE,167,2.0,10.0,64,0.00,,,0.00,,2013-07-06 04:53:00,
2013-07-06 01:02:00,74.0,61.0,29.81,SSE,167,2.0,10.0,64,0.00,,,0.00,,2013-07-06 05:02:00,
2013-07-06 01:12:00,73.0,61.0,29.82,South,173,2.0,11.0,65,0.00,,,0.00,,2013-07-06 05:12:00,
2013-07-06 01:22:00,73.0,60.0,29.81,SE,146,2.0,12.0,64,0.00,,,0.00,,2013-07-06 05:22:00,
2013-07-06 01:33:00,73.0,60.0,29.81,SE,146,2.0,12.0,64,0.00,,,0.00,,2013-07-06 05:33:00,
2013-07-06 01:42:00,73.0,61.0,29.81,SE,146,1.0,11.0,65,0.00,,,0.00,,2013-07-06 05:42:00,
2013-07-06 01:53:00,73.0,61.0,29.81,SSE,156,2.0,10.0,65,0.00,,,0.00,,2013-07-06 05:53:00,
2013-07-06 02:02:00,73.0,61.0,29.81,SSE,156,2.0,10.0,65,0.00,,,0.00,,2013-07-06 06:02:00,
2013-07-06 02:12:00,73.0,61.0,29.81,SSW,207,1.0,10.0,66,0.00,,,0.00,,2013-07-06 06:12:00,
2013-07-06 02:22:00,73.0,61.0,29.81,WNW,293,4.0,14.0,65,0.00,,,0.00,,2013-07-06 06:22:00,
2013-07-06 02:34:00,73.0,61.0,29.81,WNW,293,4.0,14.0,65,0.00,,,0.00,,2013-07-06 06:34:00,
2013-07-06 02:43:00,73.0,60.0,29.81,South,175,5.0,14.0,64,0.00,,,0.00,,2013-07-06 06:43:00,
2013-07-06 02:53:00,73.0,60.0,29.81,SSE,163,2.0,13.0,64,0.00,,,0.00,,2013-07-06 06:53:00,
2013-07-06 03:02:00,73.0,60.0,29.81,SSE,163,2.0,13.0,64,0.00,,,0.00,,2013-07-06 07:02:00,
2013-07-06 03:12:00,73.0,60.0,29.82,ESE,108,2.0,12.0,64,0.00,,,0.00,,2013-07-06 07:12:00,
2013-07-06 03:22:00,73.0,60.0,29.82,North,350,2.0,14.0,63,0.00,,,0.00,,2013-07-06 07:22:00,
2013-07-06 03:33:00,73.0,60.0,29.82,North,350,2.0,14.0,63,0.00,,,0.00,,2013-07-06 07:33:00,
2013-07-06 03:44:00,73.0,60.0,29.81,WSW,238,3.0,10.0,63,0.00,,,0.00,,2013-07-06 07:44:00,
2013-07-06 03:52:00,72.0,59.0,29.82,West,262,3.0,12.0,64,0.00,,,0.00,,2013-07-06 07:52:00,
2013-07-06 04:02:00,72.0,59.0,29.82,West,262,3.0,12.0,64,0.00,,,0.00,,2013-07-06 08:02:00,
2013-07-06 04:12:00,72.0,60.0,29.82,SE,145,2.0,9.0,65,0.00,,,0.00,,2013-07-06 08:12:00,
2013-07-06 04:21:00,72.0,60.0,29.82,SE,128,2.0,9.0,65,0.00,,,0.00,,2013-07-06 08:21:00,
2013-07-06 04:34:00,72.0,60.0,29.82,SE,128,2.0,9.0,65,0.00,,,0.00,,2013-07-06 08:34:00,
2013-07-06 04:43:00,72.0,60.0,29.82,West,265,4.0,16.0,65,0.00,,,0.00,,2013-07-06 08:43:00,
2013-07-06 04:54:00,72.0,59.0,29.82,NW,307,3.0,11.0,64,0.00,,,0.00,,2013-07-06 08:54:00,
2013-07-06 05:02:00,72.0,59.0,29.82,NW,307,3.0,11.0,64,0.00,,,0.00,,2013-07-06 09:02:00,
2013-07-06 05:11:00,72.0,59.0,29.82,West,273,1.0,9.0,64,0.00,,,0.00,,2013-07-06 09:11:00,
2013-07-06 05:22:00,72.0,60.0,29.82,South,186,1.0,15.0,65,0.00,,,0.00,,2013-07-06 09:22:00,
2013-07-06 05:33:00,72.0,60.0,29.82,South,186,1.0,15.0,65,0.00,,,0.00,,2013-07-06 09:33:00,
2013-07-06 05:43:00,71.0,59.0,29.82,SW,221,2.0,10.0,65,0.00,,,0.00,,2013-07-06 09:43:00,
2013-07-06 05:52:00,71.0,59.0,29.82,SSE,168,1.0,14.0,66,0.00,,,0.00,,2013-07-06 09:52:00,
2013-07-06 06:02:00,71.0,59.0,29.82,SSE,168,1.0,14.0,66,0.00,,,0.00,,2013-07-06 10:02:00,
2013-07-06 06:11:00,71.0,59.0,29.83,SSE,156,3.0,10.0,66,0.00,,,0.00,,2013-07-06 10:11:00,
2013-07-06 06:22:00,72.0,60.0,29.83,West,281,1.0,10.0,66,0.00,,,0.00,,2013-07-06 10:22:00,
2013-07-06 06:33:00,72.0,60.0,29.83,West,281,1.0,10.0,66,0.00,,,0.00,,2013-07-06 10:33:00,
2013-07-06 06:42:00,72.0,60.0,29.83,East,87,1.0,10.0,66,0.00,,,0.00,,2013-07-06 10:42:00,
2013-07-06 06:53:00,72.0,60.0,29.83,SSE,165,2.0,10.0,66,0.00,,,0.00,,2013-07-06 10:53:00,
2013-07-06 07:01:00,72.0,60.0,29.83,SSE,165,2.0,10.0,66,0.00,,,0.00,,2013-07-06 11:01:00,
2013-07-06 07:11:00,72.0,60.0,29.83,West,261,1.0,9.0,66,0.00,,,0.00,,2013-07-06 11:11:00,
2013-07-06 07:22:00,72.0,60.0,29.84,SSW,201,3.0,10.0,66,0.00,,,0.00,,2013-07-06 11:22:00,
2013-07-06 07:33:00,72.0,60.0,29.84,SSW,201,3.0,10.0,66,0.00,,,0.00,,2013-07-06 11:33:00,
2013-07-06 07:43:00,72.0,60.0,29.84,WSW,258,1.0,10.0,65,0.00,,,0.00,,2013-07-06 11:43:00,
2013-07-06 07:53:00,72.0,60.0,29.84,South,188,1.0,11.0,66,0.00,,,0.00,,2013-07-06 11:53:00,
2013-07-06 08:01:00,72.0,60.0,29.84,South,188,1.0,11.0,66,0.00,,,0.00,,2013-07-06 12:01:00,
2013-07-06 08:12:00,73.0,60.0,29.83,ESE,107,1.0,8.0,64,0.00,,,0.00,,2013-07-06 12:12:00,
2013-07-06 08:22:00,74.0,60.0,29.83,East,84,3.0,9.0,62,0.00,,,0.00,,2013-07-06 12:22:00,
2013-07-06 08:33:00,74.0,60.0,29.83,East,84,3.0,9.0,62,0.00,,,0.00,,2013-07-06 12:33:00,
2013-07-06 08:43:00,75.0,61.0,29.83,SSE,164,1.0,6.0,61,0.00,,,0.00,,2013-07-06 12:43:00,
2013-07-06 08:52:00,76.0,61.0,29.83,South,175,2.0,9.0,60,0.00,,,0.00,,2013-07-06 12:52:00,
2013-07-06 09:01:00,76.0,61.0,29.83,South,175,2.0,9.0,60,0.00,,,0.00,,2013-07-06 13:01:00,
2013-07-06 09:12:00,77.0,60.0,29.83,West,271,3.0,10.0,56,0.00,,,0.00,,2013-07-06 13:12:00,
2013-07-06 09:22:00,78.0,61.0,29.83,West,269,3.0,13.0,55,0.00,,,0.00,,2013-07-06 13:22:00,
2013-07-06 09:33:00,78.0,61.0,29.83,West,269,3.0,13.0,55,0.00,,,0.00,,2013-07-06 13:33:00,
2013-07-06 09:43:00,80.0,61.0,29.83,NW,308,1.0,6.0,53,0.00,,,0.00,,2013-07-06 13:43:00,
2013-07-06 09:52:00,80.0,61.0,29.83,NE,38,1.0,9.0,53,0.00,,,0.00,,2013-07-06 13:52:00,
2013-07-06 10:11:00,81.0,62.0,29.83,South,186,0.0,9.0,53,0.00,,,0.00,,2013-07-06 14:11:00,
2013-07-06 10:22:00,81.0,62.0,29.83,SSW,201,3.0,9.0,52,0.00,,,0.00,,2013-07-06 14:22:00,
2013-07-06 10:34:00,81.0,62.0,29.83,SSW,201,3.0,9.0,52,0.00,,,0.00,,2013-07-06 14:34:00,
2013-07-06 10:42:00,81.0,62.0,29.83,SW,216,3.0,10.0,52,0.00,,,0.00,,2013-07-06 14:42:00,
2013-07-06 10:53:00,83.0,61.0,29.83,South,173,3.0,14.0,48,0.00,,,0.00,,2013-07-06 14:53:00,
2013-07-06 11:02:00,83.0,61.0,29.83,South,173,3.0,14.0,48,0.00,,,0.00,,2013-07-06 15:02:00,
2013-07-06 11:12:00,84.0,62.0,29.83,South,184,3.0,11.0,48,0.00,,,0.00,,2013-07-06 15:12:00,
2013-07-06 11:22:00,84.0,62.0,29.83,WSW,254,3.0,10.0,47,0.00,,,0.00,,2013-07-06 15:22:00,
2013-07-06 11:33:00,84.0,62.0,29.83,WSW,254,3.0,10.0,47,0.00,,,0.00,,2013-07-06 15:33:00,
2013-07-06 11:43:00,85.0,62.0,29.83,WNW,286,3.0,9.0,46,0.00,,,0.00,,2013-07-06 15:43:00,
2013-07-06 11:53:00,85.0,61.0,29.83,SSW,202,1.0,16.0,45,0.00,,,0.00,,2013-07-06 15:53:00,
2013-07-06 12:07:00,85.0,61.0,29.83,SSW,202,1.0,16.0,45,0.00,,,0.00,,2013-07-06 16:07:00,
2013-07-06 12:15:00,86.0,62.0,29.83,SW,219,1.0,8.0,44,0.00,,,0.00,,2013-07-06 16:15:00,
2013-07-06 12:25:00,87.0,61.0,29.84,WSW,252,3.0,15.0,42,0.00,,,0.00,,2013-07-06 16:25:00,
2013-07-06 12:43:00,87.0,61.0,29.84,WSW,252,3.0,15.0,42,0.00,,,0.00,,2013-07-06 16:43:00,
2013-07-06 13:12:00,89.0,61.0,29.83,SSW,205,2.0,8.0,40,0.00,,,0.00,,2013-07-06 17:12:00,
2013-07-06 13:23:00,89.0,59.0,29.84,South,179,2.0,9.0,37,0.00,,,0.00,,2013-07-06 17:23:00,
2013-07-06 13:31:00,90.0,57.0,29.83,East,79,2.0,13.0,33,0.00,,,0.00,,2013-07-06 17:31:00,
2013-07-06 13:43:00,90.0,57.0,29.83,East,79,2.0,13.0,33,0.00,,,0.00,,2013-07-06 17:43:00,
2013-07-06 14:00:00,90.0,57.0,29.83,West,267,0.0,12.0,33,0.00,,,0.00,,2013-07-06 18:00:00,
2013-07-06 14:10:00,90.0,57.0,29.83,West,267,0.0,12.0,33,0.00,,,0.00,,2013-07-06 18:10:00,
2013-07-06 14:33:00,92.0,56.0,29.83,SE,146,1.0,11.0,30,0.00,,,0.00,,2013-07-06 18:33:00,
2013-07-06 14:53:00,92.0,58.0,29.83,WSW,246,2.0,9.0,32,0.00,,,0.00,,2013-07-06 18:53:00,
2013-07-06 15:01:00,92.0,55.0,29.83,SE,135,1.0,8.0,29,0.00,,,0.00,,2013-07-06 19:01:00,
2013-07-06 15:22:00,92.0,56.0,29.82,SSW,209,2.0,11.0,30,0.00,,,0.00,,2013-07-06 19:22:00,
2013-07-06 15:29:00,92.0,57.0,29.82,SSE,167,1.0,11.0,31,0.00,,,0.00,,2013-07-06 19:29:00,
2013-07-06 15:57:00,92.0,55.0,29.81,SE,131,3.0,11.0,29,0.00,,,0.00,,2013-07-06 19:57:00,
2013-07-06 16:22:00,92.0,56.0,29.81,SE,135,2.0,9.0,30,0.00,,,0.00,,2013-07-06 20:22:00,
2013-07-06 16:44:00,92.0,56.0,29.80,SSE,150,1.0,8.0,30,0.00,,,0.00,,2013-07-06 20:44:00,
2013-07-06 16:53:00,92.0,54.0,29.80,South,169,2.0,9.0,28,0.00,,,0.00,,2013-07-06 20:53:00,
2013-07-06 17:00:00,91.0,52.0,29.80,SSE,154,2.0,7.0,27,0.00,,,0.00,,2013-07-06 21:00:00,
2013-07-06 17:12:00,91.0,52.0,29.80,SSE,154,2.0,7.0,27,0.00,,,0.00,,2013-07-06 21:12:00,
2013-07-06 17:19:00,91.0,53.0,29.80,SSE,147,3.0,11.0,28,0.00,,,0.00,,2013-07-06 21:19:00,
2013-07-06 17:43:00,91.0,56.0,29.80,SW,224,0.0,8.0,31,0.00,,,0.00,,2013-07-06 21:43:00,
2013-07-06 17:53:00,91.0,54.0,29.80,South,190,1.0,8.0,29,0.00,,,0.00,,2013-07-06 21:53:00,
2013-07-06 18:00:00,91.0,55.0,29.80,SE,142,2.0,12.0,30,0.00,,,0.00,,2013-07-06 22:00:00,
2013-07-06 18:13:00,91.0,55.0,29.80,SE,142,2.0,12.0,30,0.00,,,0.00,,2013-07-06 22:13:00,
2013-07-06 18:43:00,90.0,54.0,29.79,West,267,2.0,7.0,30,0.00,,,0.00,,2013-07-06 22:43:00,
2013-07-06 18:53:00,90.0,55.0,29.79,WSW,238,0.0,8.0,31,0.00,,,0.00,,2013-07-06 22:53:00,
2013-07-06 19:00:00,90.0,55.0,29.79,South,169,0.0,6.0,31,0.00,,,0.00,,2013-07-06 23:00:00,
2013-07-06 19:09:00,90.0,55.0,29.79,South,169,0.0,6.0,31,0.00,,,0.00,,2013-07-06 23:09:00,
2013-07-06 19:22:00,90.0,56.0,29.78,South,187,1.0,5.0,32,0.00,,,0.00,,2013-07-06 23:22:00,
2013-07-06 19:32:00,89.0,55.0,29.78,South,186,1.0,5.0,32,0.00,,,0.00,,2013-07-06 23:32:00,
2013-07-06 19:44:00,89.0,55.0,29.78,South,186,1.0,5.0,32,0.00,,,0.00,,2013-07-06 23:44:00,
2013-07-06 20:01:00,88.0,55.0,29.79,South,190,1.0,5.0,33,0.00,,,0.00,,2013-07-07 00:01:00,
2013-07-06 20:14:00,88.0,55.0,29.79,South,190,1.0,5.0,33,0.00,,,0.00,,2013-07-07 00:14:00,
2013-07-06 20:23:00,87.0,56.0,29.79,SE,146,0.0,5.0,35,0.00,,,0.00,,2013-07-07 00:23:00,
2013-07-06 20:31:00,86.0,57.0,29.80,South,176,0.0,6.0,37,0.00,,,0.00,,2013-07-07 00:31:00,
2013-07-06 20:43:00,86.0,57.0,29.80,South,176,0.0,6.0,37,0.00,,,0.00,,2013-07-07 00:43:00,
2013-07-06 20:55:00,85.0,58.0,29.81,South,184,0.0,3.0,40,0.00,,,0.00,,2013-07-07 00:55:00,
2013-07-06 21:22:00,85.0,58.0,29.81,South,184,0.0,3.0,40,0.00,,,0.00,,2013-07-07 01:22:00,
2013-07-06 21:52:00,85.0,58.0,29.81,South,184,0.0,3.0,40,0.00,,,0.00,,2013-07-07 01:52:00,